Buffalo, NY

12:13 AM EST on December 14, 2019 (GMT -0500)
Buffalo Niagara International

Weather History for KBUF - October, 2019

Change the Weather History Date:

Tuesday, October 15, 2019

  Actual Average Record
Temperature  
Mean Temperature 48 °F 51 °F  
Max Temperature 61 °F 59 °F 80 °F (1947)
Min Temperature 36 °F 43 °F 25 °F (1876)
Degree Days  
Heating Degree Days 16 14  
Month to date heating degree days 175  
Since 1 July heating degree days 337  
Cooling Degree Days 0 0  
Month to date cooling degree days 0  
Year to date cooling degree days 540  
Moisture  
Dew Point 38 °F    
Average Humidity 66    
Maximum Humidity 93    
Minimum Humidity 41    
Precipitation  
Precipitation 0.00 in 0.11 in 1.43 in (1954)
Month to date precipitation 1.81  
Year to date precipitation 30.87  
Snow  
Snow 0.00 in 0.10 in 0.60 in (1972)
Month to date snowfall 0.3  
Since 1 July snowfall 0.3  
Since 1 September snowfall 0.3  
Snow Depth -    
Sea Level Pressure  
Sea Level Pressure 30.05 in    
Wind  
Wind Speed 6 mph (SSE)    
Max Wind Speed 13 mph    
Max Gust Speed -    
Visibility 10 miles    
Events      
T = Trace of Precipitation, MM = Missing Value Source: NWS Daily Summary

Daily Weather History Graph

Daily Weather History Graph

Search for Another Location

Airport or City:

Astronomy

Oct. 15, 2019 Rise Set
Actual Time 7:28 AM EDT 6:32 PM EDT
Civil Twilight 6:59 AM EDT 7:01 PM EDT
Nautical Twilight 6:26 AM EDT 7:34 PM EDT
Astronomical Twilight 5:53 AM EDT 8:06 PM EDT
Moon 7:49 PM EDT (10/15) 8:58 AM EDT (10/15)
Length of Visible Light 12h 01m
Length of Day
11h 04m
Full, 97% of the Moon is Illuminated
Oct 15
Full
Oct 21
Last Quarter
Oct 27
New
Nov 4
First Quarter
Nov 12
Full

Hourly Weather History & Observations

Time (EDT) Temp. Windchill Dew Point Humidity Pressure Visibility Wind Dir Wind Speed Gust Speed Precip Events Conditions
12:54 AM 44.1 °F 42.5 °F 35.1 °F 71% 30.12 in 10.0 mi SSW 3.5 mph - N/A   Overcast
1:54 AM 44.1 °F 42.5 °F 36.0 °F 73% 30.12 in 10.0 mi SW 3.5 mph - N/A   Mostly Cloudy
2:54 AM 44.1 °F 41.5 °F 34.0 °F 68% 30.13 in 10.0 mi SW 4.6 mph - N/A   Mostly Cloudy
3:54 AM 42.1 °F 40.2 °F 33.1 °F 70% 30.14 in 10.0 mi WNW 3.5 mph - N/A   Partly Cloudy
4:54 AM 39.0 °F 36.8 °F 35.1 °F 86% 30.14 in 10.0 mi South 3.5 mph - N/A   Clear
5:54 AM 37.9 °F 35.5 °F 35.1 °F 89% 30.14 in 10.0 mi South 3.5 mph - N/A   Clear
6:54 AM 36.0 °F 33.3 °F 33.1 °F 89% 30.16 in 10.0 mi SSE 3.5 mph - N/A   Clear
7:54 AM 37.9 °F 34.4 °F 36.0 °F 93% 30.17 in 10.0 mi SSE 4.6 mph - N/A   Scattered Clouds
8:54 AM 42.1 °F 38.4 °F 37.9 °F 85% 30.16 in 10.0 mi South 5.8 mph - N/A   Mostly Cloudy
9:54 AM 46.9 °F - 39.0 °F 74% 30.16 in 10.0 mi South 8.1 mph - N/A   Clear
9:57 AM 46.9 °F - 39.0 °F 74% 30.14 in 10.0 mi South 8.1 mph - N/A   Mostly Cloudy
10:54 AM 50.0 °F - 37.0 °F 61% 30.15 in 10.0 mi South 8.1 mph - N/A   Mostly Cloudy
11:54 AM 53.1 °F - 37.0 °F 55% 30.12 in 10.0 mi SSW 9.2 mph - N/A   Partly Cloudy
12:54 PM 55.0 °F - 37.9 °F 53% 30.09 in 10.0 mi South 12.7 mph - N/A   Partly Cloudy
1:54 PM 55.9 °F - 39.0 °F 53% 30.05 in 10.0 mi SW 8.1 mph - N/A   Partly Cloudy
2:54 PM 57.9 °F - 39.0 °F 49% 30.02 in 10.0 mi South 6.9 mph - N/A   Partly Cloudy
3:54 PM 60.1 °F - 39.0 °F 46% 29.99 in 10.0 mi Calm Calm - N/A   Scattered Clouds
4:54 PM 60.1 °F - 39.0 °F 46% 29.96 in 10.0 mi NE 6.9 mph - N/A   Mostly Cloudy
5:54 PM 59.0 °F - 39.9 °F 49% 29.95 in 10.0 mi NE 6.9 mph - N/A   Mostly Cloudy
6:54 PM 55.0 °F - 39.0 °F 55% 29.95 in 10.0 mi NNE 9.2 mph - N/A   Partly Cloudy
7:54 PM 51.1 °F - 39.9 °F 66% 29.96 in 10.0 mi NNE 10.4 mph - N/A   Partly Cloudy
8:54 PM 48.9 °F - 42.1 °F 77% 29.93 in 10.0 mi ENE 11.5 mph - N/A   Mostly Cloudy
9:54 PM 51.1 °F - 39.9 °F 66% 29.88 in 10.0 mi ESE 11.5 mph - N/A   Mostly Cloudy
10:54 PM 50.0 °F - 39.9 °F 68% 29.86 in 10.0 mi SE 6.9 mph - N/A   Mostly Cloudy
11:54 PM 50.0 °F - 39.9 °F 68% 29.83 in 10.0 mi SE 6.9 mph - N/A   Scattered Clouds